Wind_Speed
18 17 17 16 15 15 14 13 12 12 11 10 11 11 10 10 9 9 8 7 7 6 6 5 5 5 5 6 7 6 6 6 6 6 6 6 7 7 7 7 7 7
19 18 17 16 14 14 15 13 11 12 12 9 10 11 11 11 11 10 9 9 8 7 7 6 5 5 5 5 6 5 5 6 5 5 5 5 5 6 6 6 6 7
19 18 17 17 15 13 15 14 11 10 11 10 9 9 11 13 12 11 11 10 10 10 9 8 7 7 6 6 6 6 5 5 5 5 5 4 4 4 5 5 5 6
18 17 16 15 14 13 13 14 12 9 9 10 10 9 9 12 13 12 12 12 11 11 11 11 10 9 8 7 7 7 6 6 7 6 5 4 5 4 4 4 3 4
17 15 14 13 12 11 11 12 12 10 9 10 11 11 10 12 13 13 13 14 13 13 13 12 12 10 10 9 8 8 8 7 8 8 6 6 5 4 4 4 3 4
15 14 13 12 11 11 9 10 11 10 10 9 11 12 12 13 14 14 15 15 15 14 14 14 14 12 12 11 10 10 9 9 10 9 9 9 7 6 5 5 4 3
12 12 11 11 11 12 10 10 11 11 13 12 12 13 13 14 15 15 15 16 16 16 15 15 15 14 14 13 12 12 11 11 11 10 10 10 10 8 7 6 5 4
10 10 10 11 12 13 12 12 12 12 14 14 15 14 14 14 15 15 16 17 17 16 16 16 15 15 15 15 14 14 14 13 13 13 12 11 12 11 10 9 8 6
9 9 11 12 13 13 13 14 15 15 15 16 17 16 15 16 17 17 18 18 18 18 17 16 16 15 16 16 16 15 15 15 14 14 14 13 14 13 12 12 11 9
9 8 10 11 12 12 11 12 15 16 17 18 18 18 18 18 18 19 19 19 20 19 18 18 18 17 17 18 17 16 16 15 15 15 15 14 14 14 13 13 13 10
9 8 8 9 10 11 10 11 12 12 13 15 16 17 19 20 20 21 20 20 20 20 20 20 19 19 19 19 18 16 16 16 16 16 15 15 15 14 13 12 13 11
6 7 7 8 10 11 12 11 11 10 10 12 14 16 18 19 19 17 16 17 17 17 19 20 21 20 20 19 18 17 17 16 16 16 15 15 15 14 13 13 12 11
3 2 4 6 8 10 11 11 10 11 14 18 20 21 20 19 18 15 15 17 18 18 20 22 21 19 18 18 19 18 17 17 16 16 15 15 15 14 13 13 12 11
3 2 1 1 3 6 8 8 8 12 18 24 24 23 23 22 21 20 19 19 21 23 23 21 19 17 17 19 19 19 19 18 18 17 16 15 14 14 13 12 12 11
1 1 1 1 3 4 6 6 8 12 16 19 20 21 21 21 22 22 21 21 23 24 23 19 17 18 22 22 21 19 19 18 18 18 16 15 14 13 13 12 11 11
1 1 2 3 4 5 6 7 8 11 13 13 13 15 16 18 20 21 21 21 22 23 22 19 18 21 26 27 24 20 18 18 19 19 17 14 14 13 12 12 11 10
3 3 3 3 4 5 5 6 7 9 11 11 11 11 12 14 16 17 19 20 20 21 21 20 21 23 25 27 26 22 19 18 18 18 16 14 14 14 13 12 11 10
3 3 4 4 4 5 5 6 7 7 9 10 10 10 11 12 13 14 16 17 18 19 20 21 23 24 23 24 24 22 20 18 16 16 16 14 14 13 12 12 11 10
4 5 5 5 5 5 6 7 7 8 9 10 10 10 11 13 15 15 16 17 17 18 19 19 20 23 22 22 25 23 19 17 15 13 14 14 13 13 12 11 10 10
5 6 6 6 6 6 7 7 8 9 9 10 11 12 12 13 14 16 17 17 18 18 19 17 17 18 18 21 26 24 18 17 15 12 13 14 12 12 12 11 10 9
6 6 6 6 6 7 8 9 10 10 11 11 11 12 13 13 14 14 15 17 18 19 19 18 17 16 16 19 23 22 19 19 17 14 15 13 12 12 12 11 10 8
7 7 6 7 7 8 9 10 11 11 11 11 12 13 13 14 15 16 16 16 17 18 18 17 14 14 17 19 20 20 20 19 17 17 16 14 11 11 10 9 8 8
8 8 8 8 9 9 10 11 11 11 11 12 12 13 13 14 15 16 17 17 17 16 16 15 12 12 15 17 18 20 20 17 14 14 14 11 8 8 8 8 8 9
9 10 10 10 10 10 11 11 11 12 12 12 13 14 14 14 15 16 16 15 14 13 13 13 12 12 14 17 19 20 19 15 11 10 8 6 6 6 7 7 8 9
11 11 11 11 11 12 13 12 12 13 13 13 13 13 13 14 14 13 9 5 4 7 9 10 11 14 17 19 19 18 16 13 10 8 5 3 3 3 3 4 5 7
12 12 12 13 13 13 12 12 13 13 13 13 13 12 13 13 9 4 1 3 4 5 6 8 12 17 18 19 19 18 16 14 12 9 6 3 1 0 2 5 6 8
Wind_Direction
178 176 174 175 172 175 180 181 184 184 186 188 181 179 179 182 182 173 169 167 164 164 154 145 140 131 131 127 122 123 123 116 109 107 105 93 83 82 79 75 80 80
179 179 178 180 181 182 184 187 192 187 188 196 190 184 184 187 188 181 179 179 175 178 172 166 161 146 146 145 137 141 140 131 128 120 108 96 86 82 82 84 86 85
178 180 179 181 185 188 185 187 196 194 191 199 200 194 187 189 194 188 188 190 184 188 185 178 181 167 164 171 157 157 162 149 146 140 124 121 117 97 90 95 85 83
179 184 184 183 186 191 185 183 192 198 197 201 205 206 197 194 199 194 194 197 193 197 195 188 190 181 178 185 170 166 174 165 162 160 153 147 138 128 123 112 91 92
180 184 187 186 185 188 184 181 188 195 203 209 209 212 211 205 203 201 203 204 201 203 202 198 197 189 188 190 180 180 184 179 180 176 166 166 162 158 153 133 117 108
180 186 189 193 190 190 189 185 189 198 209 219 219 216 217 216 211 208 211 211 209 210 208 205 202 197 196 195 188 192 196 192 191 185 176 180 181 173 167 163 159 144
174 182 186 195 196 194 200 200 201 211 217 226 236 230 222 221 218 215 218 219 216 214 214 211 207 202 200 199 196 198 200 199 199 192 186 189 186 178 176 180 179 170
173 188 195 203 206 204 211 213 213 220 221 227 238 239 234 230 225 222 223 225 223 221 220 217 212 209 206 203 203 205 203 203 204 197 194 197 193 187 186 185 184 185
172 190 202 208 209 208 214 218 221 225 225 227 233 235 238 239 233 229 227 227 227 225 224 222 217 214 212 208 208 211 210 207 207 202 200 203 199 193 194 190 187 190
191 201 216 221 217 211 218 228 232 233 229 231 234 233 236 240 238 235 231 231 231 228 226 226 222 218 216 213 212 216 218 214 211 208 206 210 205 199 200 196 188 188
207 216 228 237 233 227 235 244 245 247 241 236 238 242 244 244 243 242 238 235 234 231 231 231 229 226 221 215 213 217 222 222 219 214 212 215 212 205 205 200 188 187
198 213 223 230 228 224 230 236 240 254 260 246 237 240 247 249 248 253 263 263 256 250 247 242 236 233 228 221 217 219 222 225 225 222 218 218 216 208 207 201 188 188
146 199 235 237 234 229 234 239 239 244 251 247 237 233 240 251 254 256 266 269 263 258 258 257 251 243 237 233 226 222 222 223 226 227 224 222 218 210 207 202 194 192
127 132 135 231 257 245 244 249 247 242 242 244 245 241 242 252 255 249 246 247 245 242 246 259 269 262 250 246 239 229 224 221 221 223 224 223 218 211 207 201 197 197
138 155 177 253 270 256 247 241 238 242 243 245 251 253 251 253 254 250 248 247 245 243 243 251 263 256 245 246 248 238 225 220 219 217 218 220 215 209 206 200 196 196
296 284 255 258 262 258 256 247 234 235 240 246 257 263 260 257 254 251 251 250 249 249 249 246 245 244 239 242 249 243 230 227 222 212 209 213 211 206 202 200 198 199
288 290 280 277 278 273 270 267 257 247 242 242 250 261 264 262 259 255 254 257 256 254 253 250 247 247 244 244 244 238 234 236 223 204 200 206 207 204 200 200 200 201
297 295 290 288 289 290 288 285 283 279 270 261 254 253 254 254 256 256 254 256 257 255 253 251 248 246 245 242 237 233 239 242 220 195 194 200 201 199 196 198 202 206
297 291 287 285 284 288 292 293 289 285 285 284 281 274 263 250 247 249 250 249 251 252 252 251 247 244 244 242 235 233 236 231 211 190 186 190 194 194 192 198 205 209
293 289 287 287 288 288 289 287 283 281 282 284 284 283 279 268 258 252 248 248 249 250 254 257 250 243 247 245 236 230 223 213 204 191 183 185 192 194 196 203 208 211
286 280 282 285 286 287 285 280 277 278 280 278 277 277 278 279 275 267 259 253 249 248 252 257 252 242 241 240 233 225 217 207 198 186 184 188 193 196 199 205 213 220
287 282 282 282 282 281 280 280 277 276 276 274 274 274 273 275 276 274 270 262 254 249 251 254 250 239 234 232 226 217 208 201 189 178 179 185 191 200 207 213 223 233
292 288 283 280 280 278 277 278 279 279 279 276 275 274 272 272 273 272 271 267 259 250 246 245 240 229 221 215 207 200 193 187 178 174 177 186 201 215 220 226 237 243
295 292 289 285 282 280 280 281 279 278 277 275 275 276 274 275 278 278 277 274 260 240 231 231 222 206 196 190 188 189 186 179 173 175 182 200 219 223 225 236 252 260
292 290 287 283 280 277 276 278 279 278 276 274 274 276 277 277 280 281 282 279 238 208 208 211 195 178 177 180 181 182 179 170 162 163 168 183 209 221 238 260 276 291
283 281 279 278 274 270 269 270 271 270 270 271 272 272 275 279 281 279 151 115 133 160 172 179 174 167 170 177 179 179 178 169 154 144 136 129 143 274 299 291 293 300
Height
790 791 793 795 796 798 800 801 802 803 805 806 806 808 809 810 811 812 813 814 814 815 815 816 816 816 817 817 818 818 818 819 819 819 820 820 821 821 822 822 822 823
789 791 793 794 796 797 799 801 802 803 805 806 806 807 808 809 810 811 812 813 814 814 815 815 816 816 817 817 818 818 818 819 819 820 820 820 821 821 822 822 822 823
788 790 792 794 795 797 798 800 802 803 804 806 806 807 808 808 809 810 811 812 813 813 814 815 815 816 816 817 817 818 818 819 819 820 820 820 821 821 822 822 823 823
787 790 791 793 795 796 798 799 802 803 804 805 806 807 808 808 809 810 811 811 812 812 813 814 814 815 816 816 817 818 818 819 819 819 820 820 821 821 821 822 822 823
786 789 791 793 794 795 797 798 800 802 803 805 806 807 807 808 808 809 810 810 811 811 812 812 813 814 815 816 816 817 817 818 818 819 819 820 820 820 821 821 822 822
785 788 790 792 793 795 796 797 799 800 802 803 804 805 806 807 807 808 809 809 810 811 811 811 812 813 814 815 815 816 816 817 817 817 818 819 819 820 820 821 821 821
785 788 790 792 793 794 795 796 798 799 800 802 803 804 805 806 806 807 808 809 809 810 810 810 811 812 813 813 814 814 815 816 816 816 817 818 818 819 819 820 820 821
785 788 790 792 792 794 795 796 797 798 799 801 802 803 804 805 805 806 807 808 808 808 809 809 810 810 811 812 813 813 814 814 815 815 816 817 817 818 818 819 820 820
785 787 790 791 791 792 794 795 797 797 798 799 800 802 802 803 804 804 805 805 806 807 807 808 809 809 810 810 811 812 812 813 814 814 815 816 816 816 817 818 819 819
785 787 789 790 790 791 792 795 797 798 798 799 800 801 801 802 802 802 802 803 804 805 805 806 807 807 807 808 809 811 812 812 813 813 814 815 815 816 816 817 818 819
786 788 789 790 790 790 791 793 795 798 799 800 800 801 801 802 802 801 801 802 802 803 804 804 805 805 805 806 807 809 810 811 812 812 813 814 814 815 816 816 817 818
786 788 789 789 789 790 791 792 793 795 798 799 799 799 800 801 800 800 801 802 803 803 804 803 803 804 804 805 805 806 808 809 810 811 812 813 813 814 815 815 815 816
786 787 787 787 788 789 790 790 791 793 797 798 797 796 796 797 797 798 800 802 802 803 803 803 803 803 804 805 804 804 805 807 808 809 811 812 812 813 813 814 814 815
785 786 786 787 787 788 789 789 789 791 794 795 795 793 792 793 795 796 797 798 798 798 799 800 802 803 804 804 803 803 803 803 805 806 808 810 811 812 812 813 813 814
785 786 786 786 786 787 787 788 788 789 790 791 791 790 789 790 792 793 794 794 795 795 796 797 800 803 804 803 802 801 801 801 802 803 805 807 810 811 812 812 813 814
785 785 785 786 786 786 787 787 787 788 789 789 788 787 787 788 789 790 791 791 792 792 794 795 796 799 800 801 801 800 800 800 800 801 802 805 808 809 811 811 812 813
784 784 785 785 785 786 787 787 787 787 787 787 786 786 787 787 788 788 788 789 789 790 791 793 794 795 796 798 799 799 799 799 799 799 800 803 806 808 809 810 811 812
784 784 784 784 785 785 786 786 787 787 786 786 785 785 786 786 787 787 786 786 787 788 789 790 791 792 793 794 795 796 797 798 797 797 798 802 805 807 808 809 810 811
783 783 783 784 784 784 785 786 786 787 786 786 785 785 785 785 785 786 786 786 786 786 787 787 788 789 790 792 792 794 795 796 796 796 798 801 804 806 807 808 809 810
783 782 782 783 783 783 784 785 786 786 786 786 785 785 785 784 784 784 784 785 785 785 785 786 786 786 788 789 790 791 793 794 795 796 798 801 803 804 806 807 807 808
782 782 782 782 782 783 783 784 784 784 785 785 785 785 784 784 783 783 783 783 783 783 784 784 784 785 786 787 788 790 792 792 793 795 798 801 802 803 804 805 806 806
780 781 781 781 782 782 782 783 783 782 783 783 783 783 783 782 782 782 781 781 781 781 782 782 782 784 784 785 787 789 791 791 792 794 796 799 801 802 803 804 805 805
779 779 780 780 780 781 781 781 781 781 781 781 781 781 781 781 781 780 780 780 779 779 779 780 781 782 783 785 786 788 789 790 792 793 795 798 800 801 802 803 804 804
779 779 779 779 779 779 779 779 779 779 779 779 779 779 779 779 779 779 779 778 776 776 776 777 779 781 783 785 786 787 788 790 792 794 796 798 800 801 802 802 803 803
778 778 778 778 778 778 778 778 778 778 778 778 778 778 778 778 778 777 776 775 775 775 775 776 778 780 782 784 786 787 789 790 792 794 796 797 799 800 800 801 801 802
777 777 777 777 777 777 777 777 777 777 777 777 777 777 777 777 776 775 774 774 775 775 776 777 778 780 782 784 785 787 789 789 790 792 794 796 798 798 799 800 800 801